星链-35438(STARLINK-35438)

导读

STARLINK-35438是美国太空探索技术公司(SpaceX)星链(Starlink)项目的低地球轨道通信卫星,于2025年11月6日发射入轨。作为星链卫星互联网星座的组成部分,它依托低轨部署优势,可为全球偏远地区、特殊场景提供高速低延迟的宽带互联网接入,助力星链实现全球无缝网络覆盖,推动全球互联基础设施建设,同时也持续推动着卫星通信领域的技术迭代与行业变革。

基本信息
目录编号:
66347
目录名称:
STARLINK-35438
国际标识:
2025-253AE
轨道中心:
EARTH
卫星名称:
星链-35438
卫星全名:
星链-35438(STARLINK-35438)
卫星状态:
在轨 (已飞行219 天)
发射日期:
2025-11-06 UTC
国别 :
美国 (US)
星等 :
--
轨道信息
数据来源 国际轨道数据
星历时间: 2026-06-11T16:38:26+0800
2天前
查看轨道信息
半长轴: 6861.157km
偏心率: 0.0000702
轨道倾角: 43.003°
近地点辐角 263.438°
升交点赤经 43.198°
平近点角 96.640°
近地点: 482.538km
远地点: 483.502km
周期: 94.266分钟
每日圈数: 15.275898
详细信息
固有亮度:
5
最大亮度:
2.5
卫星平台:
Starlink V1.0
覆盖范围:
全球
运营商:
太空探索技术公司
运营商所在国:
美国
制造商(研发单位):
太空探索技术公司
制造商所在国:
美国
使用方式:
暂无
卫星简介
Starlink 计划是 SpaceX 推出的全球卫星互联网项目,通过发射低轨道卫星,为全球尤其是偏远地区提供高速、低延迟的互联网服务。自 2019 年起,Starlink 已部署数千颗卫星,旨在缩小全球数字鸿沟,推动互联网普及。该项目还为军事、航空等行业提供通信支持,带来广泛经济效益。
2D轨道图
3D轨道图
轨道高度分析图
轨道倾角分析图
轨道综合分析图
查看轨道综合分析图